Theta_e
319 319 318 317 318 319 319 319 319 319 318 317 317 317 317 318 318 318 317 316 315 316 316 317 317 318 314 310 307 315 328 328 322 315 311 310 308 303 298 298 296 295 296 298 299 300 297
318 318 317 318 318 318 318 319 319 318 317 317 317 317 316 317 317 317 316 316 314 315 316 316 318 317 311 303 316 313 315 319 314 312 311 311 308 306 301 299 297 298 297 297 297 297 299
318 318 318 318 318 318 318 318 318 317 317 317 317 316 316 316 316 316 316 316 315 315 315 317 318 316 313 310 316 315 311 310 310 312 309 309 308 305 304 300 300 298 294 296 295 297 295
318 318 317 318 317 316 316 317 317 318 318 317 317 316 315 315 314 314 314 314 314 315 316 317 317 314 306 318 312 311 309 309 312 312 312 310 309 306 303 302 300 297 295 291 296 298 299
317 318 317 318 317 316 316 317 317 317 317 316 315 315 314 314 313 313 313 313 314 315 316 316 312 311 302 319 308 310 309 309 311 311 311 311 308 303 301 294 291 293 288 291 294 299 297
318 318 318 317 316 316 317 317 317 316 316 315 315 315 314 314 313 312 312 313 315 314 314 316 316 306 312 309 308 308 308 311 309 308 307 305 301 297 295 293 287 290 289 293 292 295 295
318 318 318 317 316 317 318 318 317 315 315 315 315 315 314 313 313 313 309 307 305 306 310 302 305 308 308 309 308 305 308 308 307 305 298 302 296 291 293 294 296 295 292 292 292 296 294
317 317 317 316 315 317 318 318 316 314 314 315 314 314 314 314 313 313 308 310 310 311 300 309 311 310 312 307 303 305 309 303 303 298 301 296 292 297 299 300 298 297 294 292 295 299 295
316 316 316 315 315 317 317 316 315 314 314 314 314 314 313 313 313 310 308 313 319 318 304 303 308 306 307 309 304 302 307 305 301 298 297 294 296 301 301 298 297 296 294 293 293 295 295
315 315 314 313 315 316 315 315 314 314 314 314 313 313 312 312 308 311 307 314 318 315 291 298 302 304 307 307 302 306 307 304 302 297 298 296 300 300 299 297 296 293 299 297 295 291 286
314 314 313 312 314 314 313 313 313 314 314 314 313 313 311 312 309 314 318 324 322 312 279 298 302 307 304 304 303 303 305 305 299 298 298 295 297 298 297 297 298 296 299 297 296 291 289
314 313 312 312 313 313 313 312 311 312 312 313 313 313 311 310 309 318 323 323 310 294 281 297 302 301 299 303 302 303 303 306 305 300 298 297 301 299 298 300 300 300 298 297 295 292 283
313 312 311 312 312 313 312 309 309 309 312 313 312 313 311 319 316 322 321 306 290 285 299 295 296 299 299 298 300 300 299 298 295 291 291 297 298 300 301 297 300 297 293 283 283 281 282
312 311 311 312 312 312 309 308 308 307 311 312 311 311 313 323 325 321 313 298 287 297 296 299 300 300 296 299 299 300 297 294 298 299 293 291 288 296 301 297 294 294 293 282 280 279 282
312 310 311 312 309 309 307 308 308 309 311 312 312 314 319 321 324 318 304 290 292 297 299 298 299 295 295 299 298 298 295 295 296 297 293 291 291 298 299 299 298 294 289 294 287 283 280
312 310 311 310 307 308 307 308 308 309 311 312 313 313 312 322 321 310 301 294 299 302 302 300 294 297 292 295 295 296 295 299 297 299 300 296 289 297 299 300 300 295 297 288 285 279 279
311 311 311 308 307 307 307 307 308 308 310 311 313 301 310 323 312 302 293 297 303 304 305 300 298 296 296 295 296 296 296 299 301 300 298 296 293 291 297 293 291 292 291 291 290 284 279
310 310 310 308 308 307 306 307 307 308 310 311 308 296 315 312 294 296 295 302 302 302 305 303 303 301 297 297 297 297 296 298 303 302 294 296 291 283 290 296 297 294 293 292 282 283 281
309 310 309 308 308 306 306 307 307 308 310 310 303 306 318 308 287 288 299 303 303 301 301 301 301 303 302 298 295 298 298 303 302 300 296 296 289 282 287 292 296 291 294 295 290 284 282
309 309 308 308 307 306 306 307 307 308 310 312 305 296 303 307 301 297 299 299 300 304 303 303 302 303 300 298 300 297 298 302 302 299 300 300 293 287 282 287 289 286 290 292 289 280 282
308 308 308 307 306 306 306 306 309 309 310 310 308 299 300 292 295 301 301 300 299 298 303 303 300 300 298 292 296 295 299 299 301 300 299 297 288 291 291 291 290 289 288 289 288 288 283
308 308 307 306 306 306 306 308 308 309 309 309 307 305 302 296 298 299 298 299 300 301 301 299 298 301 300 295 297 295 298 296 295 297 296 297 286 286 285 291 290 286 289 290 290 290 289
308 308 306 306 306 306 308 308 307 308 309 310 312 311 304 298 294 295 297 299 301 302 303 304 302 297 294 298 299 299 299 300 300 296 295 292 285 282 279 286 285 280 288 290 290 291 290
308 307 306 306 307 308 308 307 307 308 310 318 314 310 300 291 296 296 303 303 301 302 300 303 303 297 302 304 299 296 295 297 298 298 299 288 285 280 276 277 270 287 294 294 292 293 294
307 306 307 307 306 309 307 304 305 306 309 314 315 310 299 287 299 301 302 302 302 302 301 302 304 303 304 300 287 285 284 285 289 296 296 294 283 279 274 277 282 288 293 291 289 290 295
306 306 308 306 308 309 305 305 307 307 309 313 312 314 303 294 295 306 301 302 296 295 296 300 306 307 301 287 282 280 280 282 285 290 294 293 286 280 278 272 270 284 293 297 294 283 296
305 306 308 308 308 307 305 307 307 308 310 313 312 315 309 298 303 305 299 300 302 298 294 298 299 298 298 282 284 278 282 290 283 282 280 280 278 279 271 270 280 289 296 297 282 284 295
305 307 308 308 308 307 307 307 307 308 308 311 311 314 310 299 305 309 309 304 303 299 292 298 294 293 290 283 280 285 277 284 284 288 285 282 280 277 277 271 275 294 295 287 290 294 295
305 307 307 308 308 306 303 304 306 307 308 312 308 316 315 307 306 310 310 310 310 308 303 299 295 297 295 288 287 289 279 285 282 281 292 284 286 283 285 284 291 296 295 296 298 294 294
Wind_Speed
11 10 9 11 11 13 14 13 11 12 12 13 13 12 13 13 12 10 9 9 7 7 6 6 8 8 2 1 10 10 5 8 8 8 6 6 4 6 6 3 3 9 3 6 6 6 3
11 11 9 9 11 14 14 13 11 13 12 13 12 11 11 10 10 10 9 8 9 7 5 6 7 6 1 4 5 6 5 7 5 5 4 6 6 7 5 10 6 6 7 7 4 2 3
12 11 9 9 10 12 12 12 12 12 13 11 11 11 10 9 10 9 8 8 8 6 6 7 5 2 2 14 3 7 8 3 7 5 2 3 3 5 1 6 6 8 7 5 1 3 2
12 12 10 10 9 11 11 12 11 12 12 11 10 9 9 9 9 8 8 8 7 6 5 7 4 2 7 6 4 8 3 5 6 2 2 2 5 2 5 1 7 5 6 3 4 4 1
13 13 11 10 9 10 11 12 11 12 10 10 9 8 8 9 8 7 7 7 7 6 6 3 2 2 9 11 2 7 2 3 4 4 5 4 5 2 8 5 6 5 4 5 2 8 3
14 13 11 10 9 10 10 11 11 11 9 9 8 8 8 7 6 5 5 5 1 3 4 5 5 2 6 5 3 1 3 3 3 5 8 7 6 5 5 5 4 5 4 4 6 4 3
14 13 12 10 8 9 10 10 11 10 9 7 7 7 6 6 6 5 1 1 1 2 2 7 5 4 4 2 2 1 2 3 3 3 0 6 6 2 5 4 4 2 3 9 1 1 3
14 13 12 10 7 9 8 10 9 9 9 6 7 6 5 6 6 5 1 2 2 3 3 9 10 8 13 3 1 3 3 2 1 2 3 7 3 5 4 7 8 5 8 4 5 6 5
15 13 12 10 7 8 8 9 8 9 7 6 6 4 4 6 8 4 2 6 1 4 1 4 7 7 3 3 2 4 3 1 3 3 3 6 5 1 7 7 8 6 5 2 3 3 4
16 14 12 10 6 7 8 9 7 8 6 7 5 5 7 8 2 3 3 5 3 5 4 3 1 3 1 4 3 1 2 2 3 1 9 5 4 6 6 5 2 2 1 2 3 4 2
16 14 13 10 6 7 9 7 8 7 5 7 5 7 9 4 1 4 3 6 4 6 4 3 2 3 1 3 4 3 1 3 1 2 7 2 4 7 6 0 1 4 1 0 1 3 3
16 13 12 10 6 6 8 5 7 7 6 6 4 6 11 4 1 5 4 4 5 9 2 4 5 4 3 0 2 3 1 3 1 6 6 5 3 4 2 3 2 2 3 7 5 4 4
16 14 12 8 6 6 4 4 6 7 6 5 5 10 8 1 2 4 3 5 7 5 2 5 4 5 5 4 3 3 4 6 4 5 3 6 4 4 3 4 6 8 6 4 5 5 5
16 13 10 8 6 3 1 3 4 5 5 0 4 10 9 3 1 2 4 6 2 4 5 4 5 5 5 3 3 3 3 3 6 4 3 4 2 4 7 3 1 2 5 6 3 2 4
17 13 11 8 5 3 1 2 3 5 2 3 8 2 2 2 0 4 7 4 6 5 6 6 5 5 2 2 5 7 3 3 1 3 5 5 1 1 2 1 3 3 4 5 7 3 4
16 14 11 9 6 3 1 2 2 5 2 6 4 2 3 1 3 6 6 5 4 3 3 5 5 5 5 6 4 5 2 3 0 3 2 2 5 2 2 5 6 5 3 4 5 2 0
16 14 11 9 7 3 2 2 2 5 4 6 3 4 4 2 5 6 4 6 3 3 6 4 2 5 5 7 6 3 2 3 4 3 5 2 5 5 4 2 2 5 3 5 5 4 5
16 13 11 9 7 3 2 2 3 5 7 5 3 3 3 3 5 1 3 4 4 3 5 5 3 4 5 4 4 4 4 2 6 2 3 2 5 3 2 2 1 2 3 5 6 2 1
15 12 10 9 6 3 2 1 4 6 7 5 5 3 3 6 4 2 5 4 2 2 1 2 2 4 4 4 7 3 4 2 8 5 2 2 2 4 7 7 6 2 2 5 6 4 5
14 12 11 8 5 2 2 1 3 7 7 3 4 3 4 4 1 7 2 3 3 3 2 3 3 5 6 5 6 5 3 4 4 3 2 2 3 5 8 5 3 1 2 4 5 4 4
13 12 10 7 4 2 1 0 4 8 7 3 2 5 7 4 4 3 4 4 3 1 2 3 4 3 5 4 4 5 3 2 4 3 3 4 3 1 1 3 1 1 2 1 4 5 6
12 11 10 7 4 2 2 1 3 7 7 2 4 4 2 3 5 6 5 6 8 3 4 0 3 4 5 5 5 7 7 4 4 2 2 3 1 2 3 6 6 3 5 5 4 4 4
12 11 10 7 3 2 3 4 4 6 5 2 1 1 6 3 5 5 5 7 9 9 6 4 11 9 10 4 4 5 4 5 7 6 3 3 4 4 4 4 5 7 6 3 1 2 4
13 11 10 6 3 2 4 6 5 4 5 3 4 4 5 1 4 6 3 2 6 3 8 3 6 7 3 6 2 7 12 11 10 8 4 5 5 3 3 4 1 6 5 4 10 4 8
12 12 10 6 2 2 6 8 6 3 2 2 2 4 4 2 2 3 5 10 8 7 6 5 6 1 7 7 6 6 7 8 4 6 6 4 6 4 4 3 5 4 4 6 6 5 4
13 12 9 5 2 5 7 8 7 6 4 4 1 2 5 8 4 2 5 8 7 4 5 4 5 4 9 5 5 5 5 5 2 2 6 7 7 6 3 4 7 6 2 4 5 6 9
12 12 9 6 5 6 7 9 8 10 10 4 2 2 5 5 3 3 4 6 6 5 5 2 1 4 5 3 3 4 4 4 5 7 4 3 3 5 2 2 9 8 4 4 6 9 7
13 11 8 7 5 7 9 11 10 11 10 4 1 3 5 4 3 5 4 4 4 3 7 5 6 5 4 5 4 4 3 5 2 5 7 8 7 4 3 2 9 7 3 7 7 3 7
11 9 9 8 6 9 11 12 12 11 9 3 3 3 2 6 3 1 3 3 3 3 7 1 6 4 5 6 2 3 2 1 2 3 3 3 9 8 11 9 6 6 5 3 7 7 6
Wind_Direction
215 237 245 257 274 280 282 287 288 282 281 278 272 270 263 266 266 263 257 258 267 274 286 290 290 311 312 245 252 258 196 105 130 157 210 195 207 190 207 155 68 109 152 88 89 92 91
215 226 228 254 274 279 285 288 286 283 280 274 270 263 257 255 257 255 253 255 267 269 280 276 284 317 309 264 251 322 200 138 200 205 234 180 222 238 231 185 164 164 123 132 112 121 95
213 227 236 247 266 276 283 285 282 283 279 278 267 257 254 252 249 250 251 253 250 262 266 269 284 277 255 239 258 316 293 251 168 189 247 180 232 55 214 69 139 140 82 26 200 160 138
211 226 234 252 262 272 280 282 289 286 282 273 265 257 252 247 246 245 246 252 258 258 264 264 248 215 254 259 284 294 297 314 328 52 31 306 25 330 53 329 42 78 55 115 268 160 214
206 223 233 247 261 272 282 286 291 284 277 273 267 260 249 241 238 241 249 256 259 251 231 194 145 205 271 315 290 268 259 340 311 348 329 25 51 75 28 66 22 9 186 204 248 200 132
209 220 228 241 257 269 278 285 288 283 282 275 270 258 241 234 229 231 239 244 210 261 215 204 258 313 276 256 226 247 323 35 21 342 7 23 49 50 32 68 202 240 235 204 172 193 160
210 217 227 237 250 267 275 290 286 293 286 280 267 248 230 216 203 199 197 157 62 64 211 194 203 224 286 242 55 317 329 13 22 65 104 4 58 171 213 182 229 238 70 109 141 275 98
201 217 226 236 242 265 280 284 291 300 283 276 256 234 202 194 182 172 220 179 198 191 304 231 240 279 257 249 71 278 128 80 65 216 75 24 152 226 274 54 58 79 90 30 21 1 89
196 212 222 229 237 261 279 284 298 295 280 267 238 195 158 163 142 136 209 238 249 24 145 275 203 211 195 91 160 204 93 102 213 264 166 158 213 12 91 37 65 49 95 80 155 311 67
192 205 221 220 234 261 278 285 302 291 277 257 218 176 165 146 172 193 237 271 323 105 70 269 251 238 135 130 45 266 104 134 356 108 121 115 360 90 80 72 99 73 162 124 79 73 181
189 199 212 211 223 259 274 297 301 291 273 247 205 190 167 199 263 155 279 331 12 65 77 250 234 166 241 102 149 305 72 41 299 164 94 229 82 68 70 217 115 196 314 318 109 92 58
188 193 209 206 206 254 271 321 316 299 273 243 191 168 142 253 254 246 318 6 58 47 211 197 145 150 110 152 204 180 168 54 8 73 52 114 164 84 212 292 17 339 358 35 56 76 36
181 185 200 198 202 240 282 316 315 305 278 256 209 178 184 178 220 311 16 48 46 126 122 152 164 136 161 180 129 106 79 36 73 75 53 40 18 336 35 41 17 45 53 6 21 17 214
176 180 188 190 194 229 287 330 314 293 284 211 142 129 238 229 270 42 55 51 178 231 181 200 126 127 131 118 45 80 79 52 15 56 113 127 338 360 335 86 196 346 115 144 166 162 266
176 166 173 187 171 221 255 346 320 279 286 114 121 214 269 256 44 71 74 79 217 227 152 132 97 105 95 79 118 83 75 107 31 36 127 131 142 338 47 8 116 318 57 162 105 11 62
173 154 164 171 176 213 94 353 334 269 135 144 114 105 263 190 94 64 76 227 237 9 23 101 138 143 160 177 109 94 99 319 252 24 180 155 110 202 259 30 6 98 166 49 5 96 54
156 152 160 166 180 182 96 14 289 233 138 144 76 81 266 70 65 52 155 239 283 61 70 87 160 185 179 177 157 82 51 8 23 9 61 74 102 282 53 34 200 10 25 60 104 107 158
140 147 161 170 176 140 111 46 233 196 145 102 119 90 297 51 67 51 176 218 313 45 25 35 93 59 129 140 72 85 128 61 339 12 54 24 116 87 164 278 258 152 144 106 110 213 71
138 145 168 170 155 127 107 70 202 190 191 132 127 129 341 82 134 290 283 281 40 48 336 59 57 69 61 120 94 82 92 350 44 57 76 9 38 65 354 347 345 73 93 88 97 76 188
137 160 164 158 134 136 97 207 182 189 187 104 103 91 349 50 188 155 206 260 110 19 48 76 115 70 66 60 46 124 102 34 46 66 353 75 97 151 180 198 185 193 65 140 117 115 189
151 150 150 144 140 111 33 320 204 174 190 105 100 211 175 195 274 183 143 201 132 102 27 62 28 90 137 105 87 107 91 93 35 29 45 84 118 68 77 17 31 232 148 298 194 195 161
146 144 143 146 144 85 327 342 160 161 161 90 137 139 32 179 140 159 161 205 170 181 135 332 125 31 106 118 176 186 132 148 180 106 66 21 206 48 10 8 18 304 302 267 225 224 187
141 141 142 147 139 59 331 55 93 156 173 164 251 27 110 291 113 106 216 194 204 136 45 5 135 96 73 130 112 88 71 114 139 135 106 75 111 76 262 0 355 340 210 219 190 48 194
134 137 144 141 125 29 27 63 71 98 203 144 201 105 92 256 124 188 210 134 129 142 131 69 72 95 154 150 114 38 42 49 58 35 94 117 89 76 208 26 20 246 296 194 112 23 110
136 140 142 134 115 51 56 66 57 22 166 101 28 123 116 109 256 359 91 116 81 48 63 76 17 125 136 57 61 47 353 22 3 36 26 90 113 91 131 192 298 308 175 154 166 213 194
138 142 136 134 103 86 52 50 25 22 49 103 114 132 101 116 285 265 117 143 133 105 24 25 9 52 65 77 74 131 195 200 200 112 46 64 74 111 123 136 216 237 254 117 78 283 184
142 141 140 121 78 50 44 33 26 26 27 105 61 56 88 103 296 34 143 160 119 95 104 91 60 56 56 75 89 145 230 180 171 175 199 42 3 154 139 214 287 232 238 90 108 239 160
143 147 128 106 77 53 36 27 27 21 20 79 214 9 112 102 341 12 22 110 91 105 132 206 54 348 48 69 117 200 163 226 129 178 177 166 149 198 96 92 279 183 98 171 203 111 149
144 136 121 105 77 51 41 28 16 14 15 96 69 342 54 83 161 42 113 45 38 178 127 65 153 159 167 94 157 132 210 152 149 230 123 223 188 181 181 211 233 213 196 159 152 148 172